PulseSat

PulseSat

GSAT-15

Last updated on Dec. 17, 2018, 12:08 a.m. UTC

1 41028U 15065A   18350.50383732 -.00000243  00000-0  00000+0 0  9999
2 41028   0.0166 333.2448 0002370 272.3953 114.3352  1.00271114 11390
UTC
Height (km)
Latitude
Longitude
Inclination
Orbital Period

Next 30 passes for location: Hong Kong

Rise time Rise Azimuth (degrees) Set time Set Azimuth (degrees) Duration Max altitude (degrees)

No matching passes for this satellites

PulseSat

PulseSat is the new satellites software and hardware trackering solution by Pulsely.
Satellite Two Line Element Set source: US Air Force Space Command

Download PulseSat for iOS
© 2017 Pulsely Limited